NK7E Weather Reports


Display with metric or nautical units.
time (UTC)temp
F
wind
direction
speed
MPH
gust
MPH
rain 1hr
in
rain 24hr
in
rain mn
in
humidity
%
barometer
mb
20260504005517 85 203 5.0 10.0 0.00 0.00 0.00 13 1010.5
20260504004517 86 203 7.0 14.0 0.00 0.00 0.00 12 1010.6
20260504003517 86 203 9.0 20.0 0.00 0.00 0.00 13 1010.5
20260504002517 87 203 8.0 18.0 0.00 0.00 0.00 13 1010.4
20260504001517 88 203 6.0 16.0 0.00 0.00 0.00 12 1010.3
20260504000517 88 203 9.0 16.0 0.00 0.00 0.00 13 1010.1
20260503235517 89 248 7.0 16.0 0.00 0.00 0.00 13 1010.1
20260503234517 89 225 7.0 15.0 0.00 0.00 0.00 13 1009.9
20260503233517 89 225 5.0 14.0 0.00 0.00 0.00 13 1009.8
20260503232517 89 180 9.0 15.0 0.00 0.00 0.00 13 1010.0
20260503231517 90 203 7.0 15.0 0.00 0.00 0.00 14 1010.0
20260503230517 90 225 7.0 15.0 0.00 0.00 0.00 15 1009.7
20260503225517 90 180 4.0 12.0 0.00 0.00 0.00 16 1010.1
20260503224517 89 180 8.0 19.0 0.00 0.00 0.00 16 1010.3
20260503223517 90 203 8.0 15.0 0.00 0.00 0.00 16 1010.3
20260503222517 89 203 8.0 15.0 0.00 0.00 0.00 16 1010.4
20260503221517 88 90 5.0 16.0 0.00 0.00 0.00 17 1010.2
20260503220517 88 90 5.0 9.0 0.00 0.00 0.00 24 1010.4
20260503215517 87 90 4.0 8.0 0.00 0.00 0.00 25 1010.3
20260503214517 85 135 3.0 6.0 0.00 0.00 0.00 26 1010.8
20260503213517 85 68 4.0 9.0 0.00 0.00 0.00 26 1010.9
20260503212517 84 90 5.0 13.0 0.00 0.00 0.00 27 1011.2
20260503211517 85 90 7.0 14.0 0.00 0.00 0.00 27 1011.3
20260503210517 85 90 5.0 11.0 0.00 0.00 0.00 26 1011.5
20260503205517 84 113 5.0 12.0 0.00 0.00 0.00 27 1011.5
20260503204517 83 113 6.0 10.0 0.00 0.00 0.00 27 1011.7
20260503203517 83 90 7.0 14.0 0.00 0.00 0.00 26 1011.9
20260503202517 83 113 8.0 14.0 0.00 0.00 0.00 26 1012.1
20260503201517 83 158 6.0 11.0 0.00 0.00 0.00 25 1012.1
20260503200517 83 113 5.0 9.0 0.00 0.00 0.00 26 1012.3
20260503195517 83 113 7.0 15.0 0.00 0.00 0.00 26 1012.4
20260503194517 82 90 5.0 10.0 0.00 0.00 0.00 28 1012.6
20260503193517 82 113 8.0 13.0 0.00 0.00 0.00 29 1012.7
20260503192517 82 113 7.0 13.0 0.00 0.00 0.00 29 1012.8
20260503191517 81 135 8.0 15.0 0.00 0.00 0.00 30 1012.9
20260503190517 81 90 9.0 15.0 0.00 0.00 0.00 31 1013.1
20260503185517 81 113 9.0 15.0 0.00 0.00 0.00 31 1013.2
20260503184517 81 135 8.0 14.0 0.00 0.00 0.00 31 1013.4
20260503183517 80 135 7.0 17.0 0.00 0.00 0.00 31 1013.6
20260503182517 80 113 8.0 13.0 0.00 0.00 0.00 31 1013.7
20260503181517 80 113 7.0 14.0 0.00 0.00 0.00 32 1013.8
20260503180517 80 113 7.0 12.0 0.00 0.00 0.00 32 1014.0
20260503175517 80 135 6.0 11.0 0.00 0.00 0.00 32 1014.0
20260503174517 80 90 8.0 12.0 0.00 0.00 0.00 33 1014.3
20260503173517 80 113 4.0 10.0 0.00 0.00 0.00 32 1014.3
20260503172517 80 113 4.0 8.0 0.00 0.00 0.00 33 1014.4
20260503171517 79 113 7.0 16.0 0.00 0.00 0.00 33 1014.5
20260503170517 79 113 7.0 13.0 0.00 0.00 0.00 33 1014.6
20260503150516 75 113 2.0 7.0 0.00 0.00 0.00 37 1014.5
20260503130517 69 68 3.0 7.0 0.00 0.00 0.00 42 1013.5
20260503110516 70 90 3.0 7.0 0.00 0.00 0.00 40 1013.2
20260503081516 75 90 3.0 6.0 0.00 0.00 0.00 33 1013.3
20260503080516 75 90 4.0 10.0 0.00 0.00 0.00 32 1013.4
20260503072516 76 113 3.0 8.0 0.00 0.00 0.00 31 1013.5
20260503071516 77 113 2.0 6.0 0.00 0.00 0.00 30 1013.5
20260503070516 77 90 4.0 8.0 0.00 0.00 0.00 30 1013.5
20260503054517 79 45 9.0 17.0 0.00 0.00 0.00 28 1012.6
20260503053517 79 45 6.0 11.0 0.00 0.00 0.00 28 1012.6
20260503052517 78 45 9.0 16.0 0.00 0.00 0.00 28 1012.8
20260503051517 78 68 9.0 14.0 0.00 0.00 0.00 28 1012.9
20260503050517 78 68 6.0 13.0 0.00 0.00 0.00 29 1012.7
20260503045517 78 68 10.0 21.0 0.00 0.00 0.00 28 1012.7
20260503044516 78 68 9.0 16.0 0.00 0.00 0.00 28 1012.7
20260503043516 79 68 7.0 14.0 0.00 0.00 0.00 28 1012.5
20260503042516 79 90 8.0 15.0 0.00 0.00 0.00 28 1012.3
20260503041517 79 68 9.0 16.0 0.00 0.00 0.00 27 1012.0
20260503040517 79 68 8.0 15.0 0.00 0.00 0.00 27 1011.9
20260503035516 79 45 9.0 17.0 0.00 0.00 0.00 27 1011.7
20260503034517 79 68 4.0 9.0 0.00 0.00 0.00 27 1011.9
20260503033517 79 68 7.0 13.0 0.00 0.00 0.00 27 1011.9
20260503032517 79 68 9.0 14.0 0.00 0.00 0.00 26 1011.8
20260503031517 80 68 6.0 11.0 0.00 0.00 0.00 26 1011.7
20260503030517 80 68 8.0 14.0 0.00 0.00 0.00 26 1011.7
20260503025517 80 68 9.0 17.0 0.00 0.00 0.00 26 1011.6
20260503024517 80 68 7.0 14.0 0.00 0.00 0.00 25 1011.5
20260503023516 80 68 7.0 14.0 0.00 0.00 0.00 25 1011.5
20260503022516 81 90 8.0 14.0 0.00 0.00 0.00 24 1011.4
20260503021517 81 68 4.0 8.0 0.00 0.00 0.00 23 1011.4
20260503020517 82 90 4.0 9.0 0.00 0.00 0.00 23 1011.4
20260503015516 82 90 5.0 8.0 0.00 0.00 0.00 22 1011.5
20260503014516 82 90 3.0 7.0 0.00 0.00 0.00 22 1011.5
20260503013517 82 90 3.0 8.0 0.00 0.00 0.00 22 1011.5
20260503012516 83 90 4.0 8.0 0.00 0.00 0.00 21 1011.6
20260503011517 83 113 4.0 10.0 0.00 0.00 0.00 21 1011.6
20260503010517 84 158 2.0 5.0 0.00 0.00 0.00 20 1011.7